Showing default

CALSPHERE 4(A), 1520

Orbit data source: Space-Track

CALSPHERE 4(A), 1520 is a payload satellite owned by NRL (US) in LEO that was launched on Fri, 13 Aug 1965 UTC via a THOR ABLESTAR launch vehicle from the Air Force Western Test Range (AFWTR). Payload-class satellites include a variety of spacecraft equipped with specific instruments for various scientific and technological missions. These include communications satellites like Starlink; space stations such as the ISS; scientific satellites like the Hubble; Earth observation satellites from companies like Planet Labs, Umbra, and HawkEye 360; GPS; miniature CubeSats for education and research; and military/defense satellites.

Loading next visibility...
Identifier
1520, 1965-065H
Orbit
LEO
Country
Flag of USUS
Related business
Manufacturer
NRL
Mission
Operational Defense Calibration
Bus & Motor
NRL 14", Unknown motor
Mass
4 kg wet, 4 kg dry
Launch date (UTC)
1965-08-13 (60 years ago)
Launch vehicle
THOR ABLESTAR
Launch site
Air Force Western Test Range (AFWTR)
Object type
Payload
Rocket body
Debris
Shape & HBR
Sphere, 0.2 m
Radar Cross Section
0.126 m², Small (<0.1 m²)

Expand to show TLE details & history
Last TLE update: 12 hours ago

TLE from 12 hours ago
0 CALSPHERE 4(A)
1 01520U 65065H   25260.96132128  .00000106  00000-0  18582-3 0  9991
2 01520  89.9142 124.9909 0070097 150.5156 277.0700 13.36215787926354
Epoch: 2025-09-17T23:04Z
TLE epoch observation values (Epoch: 2025-09-17T23:04:18.158Z)
Latitude
66.86475°
Longitude
141.98527°
Altitude
1,128.948 km
Speed
7.297 km/s
True Right ascension
08h 20m 45s
True Declination
66° 44' 47"
Sunlit
Object was in daylight at epoch
Visualization orbit readout
Latitude
Unknown
Longitude
Unknown
Altitude
Unknown
Speed
Unknown
Apparent Right ascension
Unknown
Apparent Declination
Unknown
Sunlit
N/A
Visualization observer readout
Local Sidereal Time
03:59:15
Azimuth
Unknown
Elevation
Unknown
Doppler factor
Unknown
Orbital elements
Apogee altitude
1,173.042 km
Perigee altitude
1,067.916 km
Semi-major axis
7,498.616 km
Eccentricity
0.00701
Inclination
89.9142°
RAAN
124.9909°
Arg. of periapsis
150.5156°
True anomaly
276.27202°
Mean anomaly
277.07°
Eccentric anomaly
276.67109°
Mean motion
3.3425 °/min
Orbital period
107.7 mins
BSTAR
0.00018582
Loading maneuver chart data...
Computing Atmospheric mass density...
Loading historical data...
Loading historical data...
Loading historical data...
Loading historical data...
Loading historical data...
Loading historical data...
Loading historical data...

Documentation

Showing up to 5 results
|